Flag for Germany Weather past 2 weeks in Offenbach, Hesse, Germany

Now
63 °F

Partly sunny.


Feels Like: 63 °F
Forecast: 49 / 65 °F
Wind: 5 mph from West

Location: Frankfurt-M-Flughafen Airport

Current Time: Sep 3, 2015 at 11:32:00 AM

Latest Report: Sep 3, 2015 at 10:50 AM


Visibility: N/A

Pressure: 29.98 "Hg

Humidity: 73%

Dew point: 54 °F

Location of OffenbachLocation

Historic Weather in Offenbach — Graph

°F

Offenbach temperature yesterday

Maximum temperature yesterday: 70 °F (at 3:50 PM)
Minimum temperature yesterday: 55 °F (at 2:20 AM)
Average temperature yesterday: 62 °F

Past Weeks' High & Low Weather Summary

 TemperatureHumidityPressure
High93 °F (Aug 31, 4:50 PM)100% (Aug 24, 3:50 AM)30.27 "Hg (Aug 24, 3:50 AM)
Low52 °F (Sep 3, 6:50 AM)21% (Aug 22, 3:20 PM)29.68 "Hg (Aug 23, 5:20 PM)
Average68 °F67%30.00 "Hg
* Reported Aug 19 10:20 AM — Sep 3 10:20 AM, Offenbach, Weather by CustomWeather, © 2015

Note: Actual official high and low records may vary slightly from our data, if they occured in-between our weather recording intervals... More about our weather records

Advertising

Offenbach weather history for previous 24 hours

 ConditionsComfort  
Time TempWeatherWind HumidityBarometerVisibility
10:20 AM
Thu, Sep 3
61 °FPartly sunny.3 mph77%29.98 "HgN/A
9:50 AM59 °FPartly sunny.2 mph82%29.98 "HgN/A
9:20 AM59 °FPartly sunny.3 mph82%29.95 "HgN/A
8:50 AM59 °FPartly sunny.2 mph82%29.95 "HgN/A
8:20 AM55 °FPartly sunny.5 mph94%29.95 "HgN/A
7:50 AM55 °FSunny.5 mph88%29.95 "Hg10 mi
7:20 AM52 °FPassing clouds.3 mph94%29.95 "HgN/A
6:50 AM52 °FClear.3 mph100%29.95 "Hg10 mi
6:20 AM54 °FClear.3 mph94%29.95 "Hg10 mi
5:50 AM55 °FClear.5 mph88%29.95 "Hg10 mi
5:20 AM55 °FClear.5 mph88%29.95 "Hg10 mi
4:50 AM55 °FClear.3 mph94%29.95 "Hg10 mi
4:20 AM55 °FClear.3 mph94%29.95 "Hg10 mi
3:50 AM55 °FClear.3 mph94%29.95 "Hg10 mi
3:20 AM57 °FPassing clouds.2 mph88%29.95 "HgN/A
2:50 AM57 °FPassing clouds.3 mph88%29.95 "HgN/A
2:20 AM57 °FPassing clouds.5 mph88%29.95 "HgN/A
1:50 AM57 °FPartly cloudy.2 mph88%29.95 "HgN/A
1:20 AM57 °FClear.1 mph88%29.95 "Hg10 mi
12:50 AM55 °FClear.2 mph94%29.98 "Hg10 mi
12:20 AM57 °FClear.3 mph88%29.98 "Hg10 mi
11:50 PM
Wed, Sep 2
59 °FClear.2 mph82%29.98 "Hg10 mi
11:20 PM59 °FClear.6 mph82%29.98 "Hg10 mi
10:50 PM59 °FClear.7 mph82%29.98 "Hg10 mi
10:20 PM61 °FPassing clouds.7 mph77%29.98 "HgN/A
9:50 PM61 °FPassing clouds.10 mph77%29.98 "HgN/A
9:20 PM64 °FPassing clouds.5 mph64%29.98 "HgN/A
8:50 PM61 °FPartly sunny.7 mph68%29.98 "HgN/A
8:20 PM61 °FScattered clouds.1 mph68%29.98 "HgN/A
7:50 PM63 °FScattered clouds.2 mph64%29.98 "HgN/A
7:20 PM66 °FPartly sunny.3 mph56%29.98 "HgN/A
6:50 PM70 °FBroken clouds.6 mph43%29.98 "HgN/A
6:20 PM70 °FBroken clouds.7 mph43%29.98 "HgN/A
5:50 PM70 °FBroken clouds.7 mph46%29.98 "HgN/A
5:20 PM68 °FPartly sunny.7 mph49%29.98 "HgN/A
4:50 PM70 °FPartly sunny.2 mph46%29.98 "HgN/A
4:20 PM68 °FPartly sunny.1 mph49%29.98 "HgN/A
3:50 PM70 °FScattered clouds.2 mph50%29.98 "HgN/A
3:20 PM68 °FScattered clouds.6 mph53%30.01 "HgN/A
2:50 PM68 °FScattered clouds.8 mph53%30.01 "HgN/A
2:20 PM68 °FScattered clouds.7 mph53%30.01 "HgN/A
1:50 PM68 °FScattered clouds.6 mph56%30.01 "HgN/A
1:20 PM68 °FScattered clouds.5 mph53%30.01 "HgN/A
12:50 PM66 °FScattered clouds.2 mph64%30.04 "HgN/A
12:20 PM64 °FScattered clouds.3 mph64%30.04 "HgN/A
11:50 AM63 °FScattered clouds.2 mph73%30.04 "HgN/A
11:20 AM63 °FScattered clouds.3 mph73%30.07 "HgN/A
Weather by CustomWeather, © 2015

See weather overviewHow to use our weather pages